Time,TemperatureF,DewpointF,PressureIn,WindDirection,WindDirectionDegrees,WindSpeedMPH,WindSpeedGustMPH,Humidity,HourlyPrecipIn,Conditions,Clouds,dailyrainin,SoftwareType,DateUTC
2013-01-30 00:03:00,42.7,27.2,30.54,SSW,200,0.0,0.0,54,0.00,,SCT040,0.00,VWS V13.01,2013-01-30 08:03:00,
2013-01-30 00:08:00,42.8,26.9,30.54,SSW,200,0.0,0.0,53,0.00,,SCT040,0.00,VWS V13.01,2013-01-30 08:08:00,
2013-01-30 00:13:00,42.7,26.8,30.54,SSW,200,0.0,0.0,53,0.00,,SCT040,0.00,VWS V13.01,2013-01-30 08:13:00,
2013-01-30 00:18:00,42.7,26.8,30.54,SSW,200,0.0,0.0,53,0.00,,SCT040,0.00,VWS V13.01,2013-01-30 08:18:00,
2013-01-30 00:23:00,42.7,26.3,30.54,SSW,200,0.0,0.0,52,0.00,,SCT040,0.00,VWS V13.01,2013-01-30 08:23:00,
2013-01-30 00:28:00,42.7,26.3,30.54,SSW,200,0.0,0.0,52,0.00,,SCT040,0.00,VWS V13.01,2013-01-30 08:28:00,
2013-01-30 00:33:00,42.7,26.3,30.54,SSW,200,0.0,0.0,52,0.00,,SCT040,0.00,VWS V13.01,2013-01-30 08:33:00,
2013-01-30 00:38:00,42.7,26.3,30.54,SSW,200,0.0,0.0,52,0.00,,SCT040,0.00,VWS V13.01,2013-01-30 08:38:00,
2013-01-30 00:43:00,42.7,25.9,30.54,SSW,200,0.0,0.0,51,0.00,,BKN060,0.00,VWS V13.01,2013-01-30 08:43:00,
2013-01-30 00:48:00,42.7,25.9,30.54,SSW,200,0.0,0.0,51,0.00,,BKN060,0.00,VWS V13.01,2013-01-30 08:48:00,
2013-01-30 00:53:00,42.7,25.9,30.54,SSW,200,0.0,0.0,51,0.00,,BKN060,0.00,VWS V13.01,2013-01-30 08:53:00,
2013-01-30 00:58:00,42.7,25.9,30.54,SSW,200,0.0,0.0,51,0.00,,BKN060,0.00,VWS V13.01,2013-01-30 08:58:00,
2013-01-30 01:03:00,42.7,25.9,30.54,SSW,200,0.0,0.0,51,0.00,,BKN060,0.00,VWS V13.01,2013-01-30 09:03:00,
2013-01-30 01:08:00,42.7,25.4,30.55,SSW,200,0.0,0.0,50,0.00,,BKN060,0.00,VWS V13.01,2013-01-30 09:08:00,
2013-01-30 01:14:00,42.7,25.4,30.54,SSW,200,0.0,0.0,50,0.00,,BKN060,0.00,VWS V13.01,2013-01-30 09:14:00,
2013-01-30 01:19:00,42.7,25.4,30.54,SSW,200,0.0,0.0,50,0.00,,BKN060,0.00,VWS V13.01,2013-01-30 09:19:00,
2013-01-30 01:24:00,42.7,25.4,30.54,SSW,200,0.0,0.0,50,0.00,,BKN060,0.00,VWS V13.01,2013-01-30 09:24:00,
2013-01-30 01:29:00,42.7,25.4,30.54,SSW,200,0.0,0.0,50,0.00,,BKN060,0.00,VWS V13.01,2013-01-30 09:29:00,
2013-01-30 01:34:00,42.7,24.9,30.54,SSW,200,0.0,0.0,49,0.00,,BKN060,0.00,VWS V13.01,2013-01-30 09:34:00,
2013-01-30 01:39:00,42.8,25.0,30.54,SSW,200,0.0,0.0,49,0.00,,OVC049,0.00,VWS V13.01,2013-01-30 09:39:00,
2013-01-30 01:44:00,42.8,25.0,30.54,SSW,200,0.0,0.0,49,0.00,,OVC049,0.00,VWS V13.01,2013-01-30 09:44:00,
2013-01-30 01:49:00,42.8,25.0,30.54,SSW,200,0.0,0.0,49,0.00,,OVC049,0.00,VWS V13.01,2013-01-30 09:49:00,
2013-01-30 01:54:00,42.8,24.5,30.54,SSW,200,0.0,0.0,48,0.00,,OVC049,0.00,VWS V13.01,2013-01-30 09:54:00,
2013-01-30 01:59:00,42.7,24.4,30.54,SSW,200,0.0,0.0,48,0.00,,OVC049,0.00,VWS V13.01,2013-01-30 09:59:00,
2013-01-30 02:04:00,42.8,24.5,30.54,SSW,200,0.0,0.0,48,0.00,,OVC049,0.00,VWS V13.01,2013-01-30 10:04:00,
2013-01-30 02:09:00,42.8,24.5,30.54,SSW,200,0.0,0.0,48,0.00,,OVC049,0.00,VWS V13.01,2013-01-30 10:09:00,
2013-01-30 02:14:00,42.8,24.5,30.54,SSW,200,0.0,0.0,48,0.00,,OVC049,0.00,VWS V13.01,2013-01-30 10:14:00,
2013-01-30 02:20:00,42.7,23.9,30.54,SSW,200,0.0,0.0,47,0.00,,OVC049,0.01,VWS V13.01,2013-01-30 10:20:00,
2013-01-30 02:25:00,42.7,23.9,30.54,SSW,200,0.0,0.0,47,0.01,,OVC049,0.01,VWS V13.01,2013-01-30 10:25:00,
2013-01-30 02:30:00,42.7,23.9,30.54,SSW,200,0.0,0.0,47,0.01,,OVC049,0.01,VWS V13.01,2013-01-30 10:30:00,
2013-01-30 02:35:00,42.7,23.9,30.54,SSW,200,0.0,0.0,47,0.01,,OVC049,0.01,VWS V13.01,2013-01-30 10:35:00,
2013-01-30 02:40:00,42.8,24.0,30.53,SSW,200,0.0,0.0,47,0.01,,OVC041,0.01,VWS V13.01,2013-01-30 10:40:00,
2013-01-30 02:45:00,42.8,24.0,30.54,SSW,200,0.0,0.0,47,0.01,,OVC041,0.01,VWS V13.01,2013-01-30 10:45:00,
2013-01-30 02:50:00,42.8,23.5,30.53,SSW,200,0.0,0.0,46,0.01,,OVC041,0.01,VWS V13.01,2013-01-30 10:50:00,
2013-01-30 02:55:00,42.8,23.5,30.54,SSW,200,0.0,0.0,46,0.01,,OVC041,0.01,VWS V13.01,2013-01-30 10:55:00,
2013-01-30 03:00:00,42.8,23.5,30.54,SSW,200,0.0,0.0,46,0.01,,OVC041,0.01,VWS V13.01,2013-01-30 11:00:00,
2013-01-30 03:05:00,42.8,23.5,30.53,SSW,200,0.0,0.0,46,0.01,,OVC041,0.01,VWS V13.01,2013-01-30 11:05:00,
2013-01-30 03:10:00,42.8,23.5,30.54,SSW,200,0.0,0.0,46,0.01,,OVC041,0.01,VWS V13.01,2013-01-30 11:10:00,
2013-01-30 03:15:00,42.8,23.5,30.53,SSW,200,0.0,0.0,46,0.01,,OVC041,0.01,VWS V13.01,2013-01-30 11:15:00,
2013-01-30 03:20:00,42.8,23.0,30.53,SSW,200,0.0,0.0,45,0.01,,OVC041,0.01,VWS V13.01,2013-01-30 11:20:00,
2013-01-30 03:26:00,42.8,23.0,30.54,SSW,200,0.0,0.0,45,0.01,,OVC041,0.01,VWS V13.01,2013-01-30 11:26:00,
2013-01-30 03:31:00,42.8,23.0,30.54,SSW,200,0.0,0.0,45,0.00,,OVC041,0.01,VWS V13.01,2013-01-30 11:31:00,
2013-01-30 03:36:00,42.8,23.0,30.53,SSW,200,0.0,0.0,45,0.00,,OVC041,0.01,VWS V13.01,2013-01-30 11:36:00,
2013-01-30 03:41:00,42.8,23.0,30.53,SSW,200,0.0,0.0,45,0.01,,OVC047,0.02,VWS V13.01,2013-01-30 11:41:00,
2013-01-30 03:46:00,42.8,22.4,30.53,SSW,200,0.0,0.0,44,0.01,,OVC047,0.02,VWS V13.01,2013-01-30 11:46:00,
2013-01-30 03:51:00,42.8,22.4,30.53,SSW,200,0.0,0.0,44,0.01,,OVC047,0.02,VWS V13.01,2013-01-30 11:51:00,
2013-01-30 03:56:00,42.8,22.4,30.53,SSW,200,0.0,0.0,44,0.01,,OVC047,0.02,VWS V13.01,2013-01-30 11:56:00,
2013-01-30 04:01:00,42.8,22.4,30.53,SSW,200,0.0,0.0,44,0.01,,OVC047,0.02,VWS V13.01,2013-01-30 12:01:00,
2013-01-30 04:06:00,42.8,22.4,30.53,SSW,200,0.0,0.0,44,0.02,,OVC047,0.03,VWS V13.01,2013-01-30 12:06:00,
2013-01-30 04:11:00,42.8,22.4,30.53,SSW,200,0.0,0.0,44,0.02,,OVC047,0.03,VWS V13.01,2013-01-30 12:11:00,
2013-01-30 04:16:00,42.8,21.9,30.53,SSW,200,0.0,0.0,43,0.02,,OVC047,0.03,VWS V13.01,2013-01-30 12:16:00,
2013-01-30 04:22:00,42.8,21.9,30.53,SSW,200,0.0,0.0,43,0.02,,OVC047,0.03,VWS V13.01,2013-01-30 12:22:00,
2013-01-30 04:27:00,42.8,21.9,30.53,SSW,200,0.0,0.0,43,0.02,,OVC047,0.03,VWS V13.01,2013-01-30 12:27:00,
2013-01-30 04:32:00,42.8,21.9,30.53,SSW,200,0.0,0.0,43,0.02,,OVC047,0.03,VWS V13.01,2013-01-30 12:32:00,
2013-01-30 04:37:00,42.8,21.9,30.53,SSW,200,0.0,0.0,43,0.02,,OVC047,0.03,VWS V13.01,2013-01-30 12:37:00,
2013-01-30 04:42:00,42.8,21.3,30.53,SSW,200,0.0,0.0,42,0.02,,OVC040,0.03,VWS V13.01,2013-01-30 12:42:00,
2013-01-30 04:47:00,42.8,21.3,30.53,SSW,200,0.0,0.0,42,0.01,,OVC040,0.03,VWS V13.01,2013-01-30 12:47:00,
2013-01-30 04:52:00,42.8,21.3,30.53,SSW,200,0.0,0.0,42,0.01,,OVC036,0.03,VWS V13.01,2013-01-30 12:52:00,
2013-01-30 04:57:00,42.8,20.8,30.53,SSW,200,0.0,0.0,41,0.01,,OVC036,0.03,VWS V13.01,2013-01-30 12:57:00,
2013-01-30 05:02:00,42.8,20.8,30.53,SSW,200,0.0,0.0,41,0.01,,OVC036,0.03,VWS V13.01,2013-01-30 13:02:00,
2013-01-30 05:07:00,42.7,20.7,30.53,SSW,200,0.0,0.0,41,0.01,,OVC036,0.03,VWS V13.01,2013-01-30 13:07:00,
2013-01-30 05:12:00,42.8,20.8,30.53,SSW,200,0.0,0.0,41,0.01,,OVC036,0.03,VWS V13.01,2013-01-30 13:12:00,
2013-01-30 05:17:00,42.8,20.8,30.53,SSW,200,0.0,0.0,41,0.00,,OVC036,0.03,VWS V13.01,2013-01-30 13:17:00,
2013-01-30 05:22:00,42.8,20.8,30.53,SSW,200,0.0,0.0,41,0.00,,OVC036,0.03,VWS V13.01,2013-01-30 13:22:00,
2013-01-30 05:27:00,42.7,20.1,30.53,SSW,200,0.0,0.0,40,0.00,,OVC036,0.03,VWS V13.01,2013-01-30 13:27:00,
2013-01-30 05:32:00,42.8,20.2,30.53,SSW,200,0.0,0.0,40,0.00,,OVC036,0.03,VWS V13.01,2013-01-30 13:32:00,
2013-01-30 05:37:00,42.8,20.2,30.53,SSW,200,0.0,0.0,40,0.00,,OVC036,0.03,VWS V13.01,2013-01-30 13:37:00,
2013-01-30 05:43:00,42.8,20.2,30.52,SSW,200,0.0,0.0,40,0.00,,OVC034,0.03,VWS V13.01,2013-01-30 13:43:00,
2013-01-30 05:48:00,42.8,20.2,30.53,SSW,200,0.0,2.0,40,0.00,,OVC034,0.03,VWS V13.01,2013-01-30 13:48:00,
2013-01-30 05:53:00,42.8,20.2,30.53,SSW,200,0.0,2.0,40,0.00,,OVC034,0.03,VWS V13.01,2013-01-30 13:53:00,
2013-01-30 05:58:00,42.8,19.6,30.53,SSW,200,0.0,2.0,39,0.00,,OVC034,0.03,VWS V13.01,2013-01-30 13:58:00,
2013-01-30 06:03:00,42.8,19.6,30.53,SSW,200,0.0,1.0,39,0.00,,OVC034,0.03,VWS V13.01,2013-01-30 14:03:00,
2013-01-30 06:08:00,42.8,19.6,30.53,SSW,200,0.0,1.0,39,0.00,,OVC034,0.03,VWS V13.01,2013-01-30 14:08:00,
2013-01-30 06:13:00,42.8,19.6,30.53,SSW,200,0.0,1.0,39,0.00,,OVC034,0.03,VWS V13.01,2013-01-30 14:13:00,
2013-01-30 06:18:00,42.8,19.0,30.53,SSW,200,0.0,0.0,38,0.00,,OVC034,0.03,VWS V13.01,2013-01-30 14:18:00,
2013-01-30 06:23:00,42.8,19.6,30.53,SSW,200,0.0,0.0,39,0.00,,OVC034,0.03,VWS V13.01,2013-01-30 14:23:00,
2013-01-30 06:28:00,42.8,19.0,30.53,SSW,200,0.0,0.0,38,0.00,,OVC034,0.03,VWS V13.01,2013-01-30 14:28:00,
2013-01-30 06:33:00,42.8,19.0,30.53,SSW,200,0.0,1.0,38,0.00,,OVC034,0.04,VWS V13.01,2013-01-30 14:33:00,
2013-01-30 06:38:00,42.8,19.0,30.53,SSW,200,0.0,1.0,38,0.01,,OVC034,0.04,VWS V13.01,2013-01-30 14:38:00,
2013-01-30 06:43:00,42.8,19.0,30.53,SSW,200,0.0,1.0,38,0.01,,OVC034,0.04,VWS V13.01,2013-01-30 14:43:00,
2013-01-30 06:48:00,42.9,19.1,30.53,SSW,200,0.0,0.0,38,0.01,,OVC034,0.04,VWS V13.01,2013-01-30 14:48:00,
2013-01-30 06:53:00,42.8,19.0,30.54,SSW,200,0.0,0.0,38,0.01,,OVC034,0.04,VWS V13.01,2013-01-30 14:53:00,
2013-01-30 06:58:00,42.9,19.1,30.53,SSW,200,0.0,0.0,38,0.01,,OVC034,0.04,VWS V13.01,2013-01-30 14:58:00,
2013-01-30 07:03:00,42.8,18.4,30.54,SSW,200,0.0,0.0,37,0.01,,OVC034,0.04,VWS V13.01,2013-01-30 15:03:00,
2013-01-30 07:08:00,42.8,18.4,30.54,SSW,200,0.0,0.0,37,0.01,,OVC034,0.04,VWS V13.01,2013-01-30 15:08:00,
2013-01-30 07:13:00,42.8,18.4,30.54,SSW,200,0.0,0.0,37,0.01,,OVC034,0.04,VWS V13.01,2013-01-30 15:13:00,
2013-01-30 07:18:00,42.8,17.7,30.54,SSW,200,0.0,0.0,36,0.01,,OVC034,0.04,VWS V13.01,2013-01-30 15:18:00,
2013-01-30 07:23:00,42.8,17.7,30.54,SSW,200,0.0,0.0,36,0.01,,OVC034,0.04,VWS V13.01,2013-01-30 15:23:00,
2013-01-30 07:28:00,42.8,17.7,30.54,SSW,200,0.0,0.0,36,0.01,,OVC034,0.04,VWS V13.01,2013-01-30 15:28:00,
2013-01-30 07:33:00,42.8,17.7,30.54,SSW,200,0.0,0.0,36,0.01,,OVC034,0.04,VWS V13.01,2013-01-30 15:33:00,
2013-01-30 07:38:00,42.8,17.7,30.54,SSW,200,0.0,0.0,36,0.02,,OVC034,0.05,VWS V13.01,2013-01-30 15:38:00,
2013-01-30 07:43:00,42.8,17.1,30.54,SSW,200,0.0,0.0,35,0.02,,OVC020,0.05,VWS V13.01,2013-01-30 15:43:00,
2013-01-30 07:48:00,42.8,17.1,30.54,SSW,200,0.0,0.0,35,0.01,,OVC020,0.05,VWS V13.01,2013-01-30 15:48:00,
2013-01-30 07:54:00,42.8,17.1,30.54,SSW,200,0.0,0.0,35,0.01,,OVC020,0.05,VWS V13.01,2013-01-30 15:54:00,
2013-01-30 07:59:00,42.8,17.1,30.54,SSW,200,0.0,0.0,35,0.01,,OVC020,0.05,VWS V13.01,2013-01-30 15:59:00,
2013-01-30 08:04:00,42.8,16.4,30.54,SSW,200,0.0,0.0,34,0.01,,OVC020,0.05,VWS V13.01,2013-01-30 16:04:00,
2013-01-30 08:09:00,42.8,16.4,30.54,SSW,200,0.0,0.0,34,0.01,,OVC020,0.05,VWS V13.01,2013-01-30 16:09:00,
2013-01-30 08:14:00,42.9,16.5,30.54,SSW,200,0.0,0.0,34,0.01,,OVC020,0.05,VWS V13.01,2013-01-30 16:14:00,
2013-01-30 08:19:00,42.9,16.5,30.54,SSW,200,0.0,0.0,34,0.01,,OVC020,0.05,VWS V13.01,2013-01-30 16:19:00,
2013-01-30 08:24:00,42.9,16.5,30.54,SSW,200,0.0,0.0,34,0.01,,OVC020,0.05,VWS V13.01,2013-01-30 16:24:00,
2013-01-30 08:29:00,42.9,16.5,30.55,SSW,200,0.0,0.0,34,0.01,,OVC020,0.05,VWS V13.01,2013-01-30 16:29:00,
2013-01-30 08:34:00,43.0,16.6,30.55,SSW,200,0.0,0.0,34,0.01,,OVC020,0.05,VWS V13.01,2013-01-30 16:34:00,
2013-01-30 08:39:00,43.0,16.6,30.55,SSW,200,0.0,1.0,34,0.01,,OVC020,0.05,VWS V13.01,2013-01-30 16:39:00,
2013-01-30 08:44:00,43.1,17.3,30.55,SSW,200,0.0,1.0,35,0.01,,OVC018,0.05,VWS V13.01,2013-01-30 16:44:00,
2013-01-30 08:49:00,43.1,16.7,30.55,SSW,200,0.0,0.0,34,0.00,,OVC018,0.05,VWS V13.01,2013-01-30 16:49:00,
2013-01-30 08:54:00,43.1,16.7,30.55,SSW,200,0.0,0.0,34,0.00,,OVC018,0.05,VWS V13.01,2013-01-30 16:54:00,
2013-01-30 08:59:00,43.2,16.7,30.55,SSW,200,0.0,0.0,34,0.00,,OVC018,0.05,VWS V13.01,2013-01-30 16:59:00,
2013-01-30 09:04:00,43.2,16.7,30.55,SSW,200,0.0,0.0,34,0.00,,OVC018,0.05,VWS V13.01,2013-01-30 17:04:00,
2013-01-30 09:09:00,43.3,16.8,30.55,SSW,197,0.0,0.0,34,0.00,,OVC018,0.05,VWS V13.01,2013-01-30 17:09:00,
2013-01-30 09:14:00,43.4,16.9,30.55,ESE,119,1.0,1.0,34,0.00,,OVC018,0.05,VWS V13.01,2013-01-30 17:14:00,
2013-01-30 09:19:00,43.5,17.0,30.55,ESE,119,0.0,1.0,34,0.00,,OVC018,0.05,VWS V13.01,2013-01-30 17:19:00,
2013-01-30 09:24:00,43.6,17.1,30.55,ESE,118,0.0,1.0,34,0.00,,OVC018,0.05,VWS V13.01,2013-01-30 17:24:00,
2013-01-30 09:29:00,43.6,16.4,30.55,ESE,119,0.0,0.0,33,0.00,,OVC018,0.05,VWS V13.01,2013-01-30 17:29:00,
2013-01-30 09:34:00,43.7,17.2,30.55,ESE,118,0.0,0.0,34,0.00,,OVC018,0.05,VWS V13.01,2013-01-30 17:34:00,
2013-01-30 09:39:00,43.8,17.3,30.55,ESE,118,0.0,0.0,34,0.00,,OVC016,0.05,VWS V13.01,2013-01-30 17:39:00,
2013-01-30 09:45:00,43.9,17.4,30.55,ESE,118,0.0,0.0,34,0.00,,OVC016,0.05,VWS V13.01,2013-01-30 17:45:00,
2013-01-30 09:50:00,43.9,17.4,30.55,ESE,118,0.0,0.0,34,0.00,,OVC016,0.05,VWS V13.01,2013-01-30 17:50:00,
2013-01-30 09:55:00,44.1,17.5,30.56,ESE,118,0.0,0.0,34,0.00,,OVC016,0.05,VWS V13.01,2013-01-30 17:55:00,
2013-01-30 10:00:00,44.2,17.6,30.55,ESE,118,0.0,0.0,34,0.01,,OVC016,0.06,VWS V13.01,2013-01-30 18:00:00,
2013-01-30 10:05:00,44.2,17.6,30.55,ESE,118,0.0,0.0,34,0.01,,OVC016,0.06,VWS V13.01,2013-01-30 18:05:00,
2013-01-30 10:10:00,44.4,17.8,30.55,ESE,118,0.0,0.0,34,0.01,,OVC016,0.06,VWS V13.01,2013-01-30 18:10:00,
2013-01-30 10:15:00,44.3,17.0,30.55,ESE,118,0.0,0.0,33,0.01,,OVC016,0.06,VWS V13.01,2013-01-30 18:15:00,
2013-01-30 10:20:00,44.4,16.4,30.55,ESE,118,0.0,0.0,32,0.01,,OVC016,0.06,VWS V13.01,2013-01-30 18:20:00,
2013-01-30 10:25:00,44.4,15.7,30.55,ESE,118,0.0,0.0,31,0.02,,OVC016,0.07,VWS V13.01,2013-01-30 18:25:00,
2013-01-30 10:30:00,44.5,15.8,30.56,ESE,118,0.0,0.0,31,0.02,,OVC016,0.07,VWS V13.01,2013-01-30 18:30:00,
2013-01-30 10:35:00,44.6,15.1,30.56,ESE,118,0.0,0.0,30,0.02,,OVC016,0.07,VWS V13.01,2013-01-30 18:35:00,
2013-01-30 10:40:00,44.7,14.4,30.56,ESE,118,0.0,0.0,29,0.02,,OVC014,0.07,VWS V13.01,2013-01-30 18:40:00,
2013-01-30 10:45:00,44.7,14.4,30.56,ESE,118,0.0,0.0,29,0.02,,OVC014,0.07,VWS V13.01,2013-01-30 18:45:00,
2013-01-30 10:50:00,44.8,12.9,30.56,ESE,118,0.0,0.0,27,0.02,,OVC014,0.07,VWS V13.01,2013-01-30 18:50:00,
2013-01-30 10:55:00,44.9,13.0,30.56,ESE,118,0.0,0.0,27,0.02,,OVC014,0.07,VWS V13.01,2013-01-30 18:55:00,
2013-01-30 11:00:00,45.0,12.2,30.56,ESE,118,0.0,0.0,26,0.01,,OVC014,0.07,VWS V13.01,2013-01-30 19:00:00,
2013-01-30 11:05:00,45.1,12.3,30.56,ESE,118,0.0,0.0,26,0.02,,OVC014,0.08,VWS V13.01,2013-01-30 19:05:00,
2013-01-30 11:10:00,45.2,11.5,30.56,East,100,0.0,0.0,25,0.02,,OVC014,0.08,VWS V13.01,2013-01-30 19:10:00,
2013-01-30 11:16:00,45.2,9.6,30.56,East,100,0.0,0.0,23,0.02,,OVC014,0.08,VWS V13.01,2013-01-30 19:16:00,
2013-01-30 11:21:00,45.4,8.8,30.56,East,100,0.0,0.0,22,0.02,,OVC014,0.08,VWS V13.01,2013-01-30 19:21:00,
2013-01-30 11:26:00,45.7,9.1,30.55,SE,146,0.0,1.0,22,0.02,,OVC014,0.08,VWS V13.01,2013-01-30 19:26:00,
2013-01-30 11:31:00,46.0,10.3,30.55,SE,146,0.0,0.0,23,0.01,,OVC014,0.08,VWS V13.01,2013-01-30 19:31:00,
2013-01-30 11:36:00,46.2,10.5,30.55,SE,146,0.0,0.0,23,0.01,,OVC014,0.08,VWS V13.01,2013-01-30 19:36:00,
2013-01-30 11:41:00,46.3,10.6,30.55,SE,146,0.0,0.0,23,0.01,,OVC037,0.08,VWS V13.01,2013-01-30 19:41:00,
2013-01-30 11:46:00,46.3,8.5,30.55,SE,146,0.0,0.0,21,0.01,,OVC037,0.08,VWS V13.01,2013-01-30 19:46:00,
2013-01-30 11:51:00,46.4,5.2,30.54,SE,146,0.0,0.0,18,0.01,,OVC037,0.08,VWS V13.01,2013-01-30 19:51:00,
2013-01-30 11:56:00,46.5,1.4,30.54,SW,227,0.0,0.0,15,0.01,,OVC037,0.08,VWS V13.01,2013-01-30 19:56:00,
2013-01-30 12:01:00,46.5,-5.2,30.54,SW,227,0.0,0.0,11,0.02,,OVC037,0.09,VWS V13.01,2013-01-30 20:01:00,
2013-01-30 12:06:00,46.7,-9.1,30.54,SW,227,0.0,0.0,9,0.02,,OVC037,0.09,VWS V13.01,2013-01-30 20:06:00,
2013-01-30 12:12:00,46.8,-11.4,30.54,SW,227,0.0,0.0,8,0.02,,OVC037,0.09,VWS V13.01,2013-01-30 20:12:00,
2013-01-30 12:17:00,46.8,-17.1,30.54,SW,227,0.0,0.0,6,0.01,,OVC037,0.09,VWS V13.01,2013-01-30 20:17:00,
2013-01-30 12:22:00,46.8,-49.1,30.54,SW,227,0.0,0.0,1,0.01,,OVC037,0.09,VWS V13.01,2013-01-30 20:22:00,
2013-01-30 12:27:00,46.9,0.0,30.53,SW,227,0.0,0.0,0,0.01,,OVC037,0.09,VWS V13.01,2013-01-30 20:27:00,
2013-01-30 12:32:00,47.0,0.0,30.53,SW,227,0.0,0.0,0,0.01,,OVC037,0.09,VWS V13.01,2013-01-30 20:32:00,
2013-01-30 12:37:00,47.1,0.0,30.53,SW,227,0.0,2.0,0,0.01,,OVC037,0.09,VWS V13.01,2013-01-30 20:37:00,
2013-01-30 12:42:00,47.2,0.0,30.53,SW,227,0.0,2.0,0,0.01,,OVC037,0.09,VWS V13.01,2013-01-30 20:42:00,
2013-01-30 12:47:00,47.2,0.0,30.53,SW,227,0.0,1.0,0,0.01,,OVC037,0.09,VWS V13.01,2013-01-30 20:47:00,
2013-01-30 12:52:00,47.3,0.0,30.53,SSW,200,0.0,2.0,0,0.01,,OVC037,0.09,VWS V13.01,2013-01-30 20:52:00,
2013-01-30 12:57:00,47.4,0.0,30.53,SSW,200,0.0,2.0,0,0.01,,OVC037,0.09,VWS V13.01,2013-01-30 20:57:00,
2013-01-30 13:02:00,47.6,0.0,30.53,SSW,200,0.0,0.0,0,0.01,,OVC037,0.09,VWS V13.01,2013-01-30 21:02:00,
2013-01-30 13:07:00,47.7,0.0,30.53,South,187,0.0,4.0,0,0.02,,OVC037,0.10,VWS V13.01,2013-01-30 21:07:00,
2013-01-30 13:12:00,47.7,0.0,30.53,SSW,194,0.0,4.0,0,0.02,,OVC037,0.10,VWS V13.01,2013-01-30 21:12:00,
2013-01-30 13:17:00,47.8,0.0,30.53,SSW,194,0.0,0.0,0,0.01,,OVC037,0.10,VWS V13.01,2013-01-30 21:17:00,
2013-01-30 13:23:00,47.8,0.0,30.52,SSW,194,0.0,1.0,0,0.01,,OVC037,0.10,VWS V13.01,2013-01-30 21:23:00,
2013-01-30 13:28:00,47.9,0.0,30.52,SSW,194,0.0,1.0,0,0.01,,OVC037,0.10,VWS V13.01,2013-01-30 21:28:00,
2013-01-30 13:33:00,47.9,0.0,30.52,SSW,194,0.0,1.0,0,0.01,,OVC037,0.10,VWS V13.01,2013-01-30 21:33:00,
2013-01-30 13:38:00,48.0,0.0,30.52,SSW,194,0.0,1.0,0,0.02,,OVC037,0.11,VWS V13.01,2013-01-30 21:38:00,
2013-01-30 13:43:00,48.0,0.0,30.52,SSW,194,1.0,2.0,0,0.02,,OVC037,0.11,VWS V13.01,2013-01-30 21:43:00,
2013-01-30 13:48:00,48.0,0.0,30.52,SE,145,0.0,2.0,0,0.03,,OVC037,0.12,VWS V13.01,2013-01-30 21:48:00,
2013-01-30 13:53:00,48.1,0.0,30.52,SE,145,0.0,2.0,0,0.03,,OVC037,0.12,VWS V13.01,2013-01-30 21:53:00,
2013-01-30 13:58:00,48.2,0.0,30.52,SE,145,0.0,2.0,0,0.03,,OVC037,0.12,VWS V13.01,2013-01-30 21:58:00,
2013-01-30 14:03:00,48.2,0.0,30.52,SE,146,0.0,0.0,0,0.04,,OVC037,0.13,VWS V13.01,2013-01-30 22:03:00,
2013-01-30 14:08:00,48.2,0.0,30.52,SE,145,0.0,0.0,0,0.04,,OVC037,0.13,VWS V13.01,2013-01-30 22:08:00,
2013-01-30 14:14:00,48.3,0.0,30.52,SE,145,0.0,0.0,0,0.04,,OVC037,0.13,VWS V13.01,2013-01-30 22:14:00,
2013-01-30 14:19:00,48.3,0.0,30.52,SE,145,0.0,0.0,0,0.04,,OVC037,0.14,VWS V13.01,2013-01-30 22:19:00,
2013-01-30 14:24:00,48.4,0.0,30.52,SE,145,0.0,0.0,0,0.04,,OVC037,0.14,VWS V13.01,2013-01-30 22:24:00,
2013-01-30 14:29:00,48.5,0.0,30.52,SE,145,0.0,0.0,0,0.04,,OVC037,0.15,VWS V13.01,2013-01-30 22:29:00,
2013-01-30 14:34:00,48.5,0.0,30.51,SE,145,0.0,0.0,0,0.05,,OVC037,0.15,VWS V13.01,2013-01-30 22:34:00,
2013-01-30 14:39:00,48.5,0.0,30.52,SE,145,0.0,0.0,0,0.05,,OVC037,0.15,VWS V13.01,2013-01-30 22:39:00,
2013-01-30 14:44:00,48.5,0.0,30.52,SE,146,0.0,0.0,0,0.05,,OVC037,0.15,VWS V13.01,2013-01-30 22:44:00,
2013-01-30 14:49:00,48.5,0.0,30.51,SE,145,0.0,0.0,0,0.05,,OVC037,0.16,VWS V13.01,2013-01-30 22:49:00,
2013-01-30 14:54:00,48.4,0.0,30.51,SE,146,0.0,1.0,0,0.05,,OVC037,0.16,VWS V13.01,2013-01-30 22:54:00,
2013-01-30 14:59:00,48.5,0.0,30.51,SE,145,0.0,0.0,0,0.05,,OVC037,0.16,VWS V13.01,2013-01-30 22:59:00,
2013-01-30 15:05:00,48.5,0.0,30.52,SE,145,0.0,0.0,0,0.04,,OVC037,0.16,VWS V13.01,2013-01-30 23:05:00,
2013-01-30 15:10:00,48.5,0.0,30.51,SE,145,0.0,1.0,0,0.04,,OVC037,0.16,VWS V13.01,2013-01-30 23:10:00,
2013-01-30 15:15:00,48.5,0.0,30.51,SE,145,0.0,0.0,0,0.05,,OVC037,0.17,VWS V13.01,2013-01-30 23:15:00,
2013-01-30 15:20:00,48.6,0.0,30.51,SE,145,1.0,2.0,0,0.04,,OVC037,0.17,VWS V13.01,2013-01-30 23:20:00,
2013-01-30 15:25:00,48.6,0.0,30.51,South,171,0.0,2.0,0,0.04,,OVC037,0.17,VWS V13.01,2013-01-30 23:25:00,
2013-01-30 15:30:00,48.7,0.0,30.51,South,171,0.0,0.0,0,0.02,,OVC037,0.17,VWS V13.01,2013-01-30 23:30:00,
2013-01-30 15:35:00,48.8,0.0,30.51,South,171,0.0,0.0,0,0.02,,OVC037,0.17,VWS V13.01,2013-01-30 23:35:00,
2013-01-30 15:40:00,48.8,0.0,30.51,South,171,0.0,0.0,0,0.02,,OVC055,0.17,VWS V13.01,2013-01-30 23:40:00,
2013-01-30 15:45:00,48.9,0.0,30.51,South,171,0.0,0.0,0,0.02,,OVC055,0.17,VWS V13.01,2013-01-30 23:45:00,
2013-01-30 15:50:00,48.8,0.0,30.52,South,171,0.0,0.0,0,0.02,,OVC055,0.17,VWS V13.01,2013-01-30 23:50:00,
2013-01-30 15:55:00,48.8,0.0,30.52,South,170,0.0,0.0,0,0.02,,OVC055,0.17,VWS V13.01,2013-01-30 23:55:00,
2013-01-30 16:00:00,48.8,0.0,30.52,South,170,0.0,0.0,0,0.01,,OVC055,0.17,VWS V13.01,2013-01-31 00:00:00,
2013-01-30 16:06:00,48.8,0.0,30.51,South,170,0.0,0.0,0,0.01,,OVC055,0.17,VWS V13.01,2013-01-31 00:06:00,
2013-01-30 16:11:00,48.8,0.0,30.51,South,171,0.0,0.0,0,0.01,,BKN021,0.17,VWS V13.01,2013-01-31 00:11:00,
2013-01-30 16:16:00,48.8,0.0,30.51,South,171,0.0,0.0,0,0.00,,BKN021,0.17,VWS V13.01,2013-01-31 00:16:00,
2013-01-30 16:21:00,48.8,0.0,30.52,South,171,0.0,0.0,0,0.01,,BKN021,0.18,VWS V13.01,2013-01-31 00:21:00,
2013-01-30 16:26:00,48.7,0.0,30.51,South,171,0.0,0.0,0,0.01,,BKN021,0.18,VWS V13.01,2013-01-31 00:26:00,
2013-01-30 16:31:00,48.7,0.0,30.51,South,171,0.0,0.0,0,0.01,,BKN021,0.18,VWS V13.01,2013-01-31 00:31:00,
2013-01-30 16:36:00,48.7,0.0,30.51,South,171,0.0,0.0,0,0.01,,BKN021,0.18,VWS V13.01,2013-01-31 00:36:00,
2013-01-30 16:41:00,48.6,0.0,30.51,South,170,0.0,0.0,0,0.01,,BKN021,0.18,VWS V13.01,2013-01-31 00:41:00,
2013-01-30 16:46:00,48.5,0.0,30.52,South,171,0.0,0.0,0,0.01,,BKN021,0.18,VWS V13.01,2013-01-31 00:46:00,
2013-01-30 16:51:00,48.5,0.0,30.51,South,171,0.0,0.0,0,0.01,,BKN060,0.18,VWS V13.01,2013-01-31 00:51:00,
2013-01-30 16:56:00,48.4,0.0,30.51,South,171,0.0,0.0,0,0.01,,BKN060,0.18,VWS V13.01,2013-01-31 00:56:00,
2013-01-30 17:01:00,48.4,0.0,30.51,South,171,0.0,0.0,0,0.01,,BKN060,0.18,VWS V13.01,2013-01-31 01:01:00,
2013-01-30 17:06:00,48.3,0.0,30.51,South,170,0.0,0.0,0,0.01,,BKN060,0.18,VWS V13.01,2013-01-31 01:06:00,
2013-01-30 17:11:00,48.2,0.0,30.51,South,170,0.0,0.0,0,0.01,,BKN060,0.18,VWS V13.01,2013-01-31 01:11:00,
2013-01-30 17:17:00,48.1,0.0,30.51,South,171,0.0,0.0,0,0.01,,BKN060,0.18,VWS V13.01,2013-01-31 01:17:00,
2013-01-30 17:22:00,48.1,0.0,30.51,South,171,0.0,0.0,0,0.01,,BKN060,0.18,VWS V13.01,2013-01-31 01:22:00,
2013-01-30 17:27:00,48.0,0.0,30.51,South,171,0.0,0.0,0,0.01,,BKN060,0.18,VWS V13.01,2013-01-31 01:27:00,
2013-01-30 17:32:00,47.9,0.0,30.51,South,171,0.0,0.0,0,0.00,,BKN060,0.18,VWS V13.01,2013-01-31 01:32:00,
2013-01-30 17:37:00,47.8,0.0,30.51,South,171,0.0,0.0,0,0.00,,BKN060,0.18,VWS V13.01,2013-01-31 01:37:00,
2013-01-30 17:42:00,47.8,0.0,30.51,South,171,0.0,0.0,0,0.00,,BKN060,0.18,VWS V13.01,2013-01-31 01:42:00,
2013-01-30 17:47:00,47.7,0.0,30.51,South,171,0.0,0.0,0,0.00,,BKN060,0.18,VWS V13.01,2013-01-31 01:47:00,
2013-01-30 17:52:00,47.6,0.0,30.51,South,171,0.0,0.0,0,0.00,,BKN055,0.18,VWS V13.01,2013-01-31 01:52:00,
2013-01-30 17:57:00,47.6,0.0,30.51,South,171,0.0,0.0,0,0.01,,BKN055,0.19,VWS V13.01,2013-01-31 01:57:00,
2013-01-30 18:02:00,47.4,0.0,30.51,South,171,0.0,0.0,0,0.01,,BKN055,0.19,VWS V13.01,2013-01-31 02:02:00,
2013-01-30 18:07:00,47.3,0.0,30.50,South,171,0.0,0.0,0,0.01,,BKN055,0.19,VWS V13.01,2013-01-31 02:07:00,
2013-01-30 18:12:00,47.3,0.0,30.51,South,171,0.0,0.0,0,0.01,,BKN055,0.19,VWS V13.01,2013-01-31 02:12:00,
2013-01-30 18:18:00,47.2,0.0,30.51,South,171,0.0,0.0,0,0.01,,BKN055,0.19,VWS V13.01,2013-01-31 02:18:00,
2013-01-30 18:22:00,47.2,0.0,30.51,South,171,0.0,0.0,0,0.01,,BKN055,0.19,VWS V13.01,2013-01-31 02:22:00,
2013-01-30 18:28:00,47.1,0.0,30.51,South,171,0.0,0.0,0,0.01,,BKN055,0.19,VWS V13.01,2013-01-31 02:28:00,
2013-01-30 18:33:00,47.1,0.0,30.51,South,171,0.0,0.0,0,0.01,,BKN055,0.19,VWS V13.01,2013-01-31 02:33:00,
2013-01-30 18:38:00,47.0,0.0,30.51,South,171,0.0,0.0,0,0.01,,BKN055,0.19,VWS V13.01,2013-01-31 02:38:00,
2013-01-30 18:43:00,47.0,0.0,30.51,South,170,0.0,0.0,0,0.01,,BKN055,0.19,VWS V13.01,2013-01-31 02:43:00,
2013-01-30 18:48:00,47.0,0.0,30.51,South,170,0.0,0.0,0,0.01,,BKN055,0.19,VWS V13.01,2013-01-31 02:48:00,
2013-01-30 18:53:00,46.9,0.0,30.51,South,170,0.0,0.0,0,0.01,,BKN055,0.19,VWS V13.01,2013-01-31 02:53:00,
2013-01-30 18:58:00,46.9,0.0,30.50,South,171,0.0,0.0,0,0.01,,BKN055,0.19,VWS V13.01,2013-01-31 02:58:00,
2013-01-30 19:03:00,46.8,0.0,30.50,South,171,0.0,0.0,0,0.00,,BKN055,0.19,VWS V13.01,2013-01-31 03:03:00,
2013-01-30 19:08:00,46.8,0.0,30.51,South,171,0.0,0.0,0,0.00,,BKN055,0.19,VWS V13.01,2013-01-31 03:08:00,
2013-01-30 19:13:00,46.7,0.0,30.50,South,170,0.0,0.0,0,0.00,,BKN055,0.19,VWS V13.01,2013-01-31 03:13:00,
2013-01-30 19:18:00,46.6,0.0,30.50,South,170,0.0,0.0,0,0.00,,BKN055,0.19,VWS V13.01,2013-01-31 03:18:00,
2013-01-30 19:23:00,46.6,0.0,30.50,South,171,0.0,0.0,0,0.00,,BKN055,0.19,VWS V13.01,2013-01-31 03:23:00,
2013-01-30 19:29:00,46.5,0.0,30.50,South,170,0.0,0.0,0,0.00,,BKN055,0.19,VWS V13.01,2013-01-31 03:29:00,
2013-01-30 19:34:00,46.5,0.0,30.50,South,171,0.0,0.0,0,0.00,,BKN055,0.19,VWS V13.01,2013-01-31 03:34:00,
2013-01-30 19:39:00,46.4,0.0,30.50,South,171,0.0,0.0,0,0.00,,BKN055,0.19,VWS V13.01,2013-01-31 03:39:00,
2013-01-30 19:44:00,46.4,0.0,30.50,South,171,0.0,0.0,0,0.00,,OVC055,0.19,VWS V13.01,2013-01-31 03:44:00,
2013-01-30 19:49:00,46.4,0.0,30.50,South,171,0.0,0.0,0,0.00,,OVC055,0.19,VWS V13.01,2013-01-31 03:49:00,
2013-01-30 19:54:00,46.4,0.0,30.50,South,171,0.0,0.0,0,0.00,,OVC055,0.19,VWS V13.01,2013-01-31 03:54:00,
2013-01-30 19:59:00,46.4,0.0,30.50,South,171,0.0,0.0,0,0.00,,OVC055,0.19,VWS V13.01,2013-01-31 03:59:00,
2013-01-30 20:04:00,46.3,0.0,30.50,South,171,0.0,0.0,0,0.00,,OVC055,0.19,VWS V13.01,2013-01-31 04:04:00,
2013-01-30 20:09:00,46.3,0.0,30.50,South,171,0.0,0.0,0,0.00,,OVC055,0.19,VWS V13.01,2013-01-31 04:09:00,
2013-01-30 20:14:00,46.3,0.0,30.50,South,170,0.0,0.0,0,0.00,,OVC055,0.19,VWS V13.01,2013-01-31 04:14:00,
2013-01-30 20:19:00,46.3,0.0,30.50,South,171,0.0,1.0,0,0.00,,OVC055,0.19,VWS V13.01,2013-01-31 04:19:00,
2013-01-30 20:24:00,46.3,0.0,30.50,SE,146,1.0,1.0,0,0.00,,OVC055,0.19,VWS V13.01,2013-01-31 04:24:00,
2013-01-30 20:30:00,46.2,0.0,30.50,SE,134,0.0,1.0,0,0.00,,OVC055,0.19,VWS V13.01,2013-01-31 04:30:00,
2013-01-30 20:35:00,46.1,0.0,30.50,NE,39,1.0,3.0,0,0.00,,OVC055,0.19,VWS V13.01,2013-01-31 04:35:00,
2013-01-30 20:40:00,46.1,0.0,30.49,NE,39,0.0,3.0,0,0.00,,OVC020,0.19,VWS V13.01,2013-01-31 04:40:00,
2013-01-30 20:45:00,46.0,0.0,30.49,NE,39,0.0,0.0,0,0.00,,OVC020,0.19,VWS V13.01,2013-01-31 04:45:00,
2013-01-30 20:50:00,46.0,0.0,30.50,NE,39,0.0,0.0,0,0.00,,OVC020,0.19,VWS V13.01,2013-01-31 04:50:00,
2013-01-30 20:55:00,45.9,0.0,30.50,NE,39,0.0,0.0,0,0.00,,OVC020,0.19,VWS V13.01,2013-01-31 04:55:00,
2013-01-30 21:01:00,45.9,0.0,30.50,NE,39,0.0,0.0,0,0.00,,OVC020,0.19,VWS V13.01,2013-01-31 05:01:00,
2013-01-30 21:05:00,45.9,0.0,30.50,NE,39,0.0,0.0,0,0.00,,OVC020,0.19,VWS V13.01,2013-01-31 05:05:00,
2013-01-30 21:10:00,45.8,0.0,30.50,NE,39,0.0,0.0,0,0.00,,OVC020,0.19,VWS V13.01,2013-01-31 05:10:00,
2013-01-30 21:15:00,45.8,0.0,30.50,NE,39,0.0,0.0,0,0.00,,OVC020,0.19,VWS V13.01,2013-01-31 05:15:00,
2013-01-30 21:20:00,45.8,0.0,30.50,NE,39,0.0,0.0,0,0.00,,OVC020,0.19,VWS V13.01,2013-01-31 05:20:00,
2013-01-30 21:25:00,45.8,0.0,30.50,NE,39,0.0,0.0,0,0.00,,OVC020,0.19,VWS V13.01,2013-01-31 05:25:00,
2013-01-30 21:30:00,45.7,0.0,30.50,NE,39,0.0,0.0,0,0.00,,OVC020,0.19,VWS V13.01,2013-01-31 05:30:00,
2013-01-30 21:35:00,45.7,0.0,30.50,NE,39,1.0,1.0,0,0.00,,OVC020,0.19,VWS V13.01,2013-01-31 05:35:00,
2013-01-30 21:40:00,45.6,0.0,30.49,NE,39,0.0,2.0,0,0.00,,BKN065,0.19,VWS V13.01,2013-01-31 05:40:00,
2013-01-30 21:45:00,45.6,0.0,30.49,NE,39,0.0,0.0,0,0.00,,BKN065,0.19,VWS V13.01,2013-01-31 05:45:00,
2013-01-30 21:50:00,45.5,0.0,30.49,NE,40,0.0,2.0,0,0.00,,BKN025,0.19,VWS V13.01,2013-01-31 05:50:00,
2013-01-30 21:56:00,45.3,0.0,30.49,NE,39,0.0,2.0,0,0.00,,BKN025,0.19,VWS V13.01,2013-01-31 05:56:00,
2013-01-30 22:01:00,45.2,0.0,30.49,NE,39,0.0,0.0,0,0.00,,BKN025,0.19,VWS V13.01,2013-01-31 06:01:00,
2013-01-30 22:06:00,45.1,0.0,30.49,SE,136,1.0,1.0,0,0.00,,BKN025,0.19,VWS V13.01,2013-01-31 06:06:00,
2013-01-30 22:11:00,45.1,0.0,30.50,SSW,192,0.0,3.0,0,0.00,,BKN025,0.19,VWS V13.01,2013-01-31 06:11:00,
2013-01-30 22:16:00,45.0,0.0,30.50,SSW,192,0.0,0.0,0,0.00,,BKN025,0.19,VWS V13.01,2013-01-31 06:16:00,
2013-01-30 22:21:00,45.0,0.0,30.49,SSW,192,0.0,0.0,0,0.01,,BKN025,0.20,VWS V13.01,2013-01-31 06:21:00,
2013-01-30 22:26:00,44.8,0.0,30.49,SSW,192,0.0,0.0,0,0.01,,BKN025,0.20,VWS V13.01,2013-01-31 06:26:00,
2013-01-30 22:31:00,44.7,0.0,30.49,SSW,192,0.0,0.0,0,0.01,,BKN025,0.20,VWS V13.01,2013-01-31 06:31:00,
2013-01-30 22:36:00,44.6,0.0,30.49,SSW,192,0.0,1.0,0,0.01,,BKN025,0.20,VWS V13.01,2013-01-31 06:36:00,
2013-01-30 22:41:00,44.7,0.0,30.49,SSW,192,0.0,1.0,0,0.01,,BKN025,0.20,VWS V13.01,2013-01-31 06:41:00,
2013-01-30 22:46:00,44.7,0.0,30.49,SSW,192,0.0,0.0,0,0.01,,BKN025,0.20,VWS V13.01,2013-01-31 06:46:00,
2013-01-30 22:51:00,44.8,0.0,30.49,SSW,192,0.0,1.0,0,0.01,,,0.20,VWS V13.01,2013-01-31 06:51:00,
2013-01-30 22:56:00,44.8,0.0,30.50,SSW,192,0.0,1.0,0,0.01,,,0.20,VWS V13.01,2013-01-31 06:56:00,
2013-01-30 23:01:00,44.8,0.0,30.50,SSW,192,0.0,0.0,0,0.01,,,0.20,VWS V13.01,2013-01-31 07:01:00,
2013-01-30 23:07:00,44.8,0.0,30.50,SSW,192,0.0,0.0,0,0.01,,,0.20,VWS V13.01,2013-01-31 07:07:00,
2013-01-30 23:12:00,44.8,0.0,30.49,SSW,192,0.0,0.0,0,0.01,,,0.20,VWS V13.01,2013-01-31 07:12:00,
2013-01-30 23:17:00,44.8,0.0,30.49,SSW,192,0.0,0.0,0,0.01,,,0.20,VWS V13.01,2013-01-31 07:17:00,
2013-01-30 23:22:00,44.7,0.0,30.49,SSW,192,0.0,0.0,0,0.01,,,0.20,VWS V13.01,2013-01-31 07:22:00,
2013-01-30 23:27:00,44.8,0.0,30.49,SSW,192,0.0,0.0,0,0.01,,,0.20,VWS V13.01,2013-01-31 07:27:00,
2013-01-30 23:32:00,44.8,0.0,30.49,SSW,192,0.0,0.0,0,0.00,,,0.20,VWS V13.01,2013-01-31 07:32:00,
2013-01-30 23:37:00,44.7,0.0,30.49,SSW,192,0.0,0.0,0,0.00,,,0.20,VWS V13.01,2013-01-31 07:37:00,
2013-01-30 23:42:00,44.7,0.0,30.49,SSW,192,0.0,0.0,0,0.00,,OVC023,0.20,VWS V13.01,2013-01-31 07:42:00,
2013-01-30 23:47:00,44.8,0.0,30.49,SSW,192,0.0,0.0,0,0.00,,OVC023,0.20,VWS V13.01,2013-01-31 07:47:00,
2013-01-30 23:52:00,44.8,0.0,30.49,SSW,192,0.0,0.0,0,0.00,,OVC023,0.20,VWS V13.01,2013-01-31 07:52:00,
2013-01-30 23:57:00,44.8,0.0,30.49,SSW,192,0.0,0.0,0,0.00,,OVC023,0.20,VWS V13.01,2013-01-31 07:57:00,